Lapse_Rate
-0.8 -1.0 -0.4 0.5 1.2 1.5 1.9 2.3 2.9 3.8 5.0 5.6 5.8 6.1 6.7 7.7 7.6 7.6 8.5 9.3 9.3 9.4 9.0 8.8 9.0 8.9 8.8
-0.3 -0.3 0.6 1.0 1.5 2.0 3.1 3.9 3.8 4.1 5.1 5.7 5.7 6.1 6.4 6.6 6.5 6.9 8.5 9.1 8.5 8.8 9.0 9.3 9.1 8.7 8.8
0.3 1.0 1.5 1.8 2.3 2.5 3.2 2.9 3.3 3.9 4.2 4.7 5.4 5.3 5.4 6.0 6.4 6.3 6.8 8.1 6.8 6.9 6.9 7.0 7.3 8.7 9.3
1.3 1.2 1.9 1.6 0.8 1.5 1.5 0.3 0.9 2.6 2.7 3.6 3.8 4.4 4.6 5.1 5.6 5.7 5.7 6.0 6.2 6.5 6.8 7.8 8.8 9.2 9.0
-0.6 0.1 -1.0 0.5 0.8 -0.1 0.8 -0.0 -0.1 -0.4 -0.2 1.2 2.4 2.4 2.7 3.4 3.5 4.2 4.8 5.6 6.1 6.5 7.6 8.8 9.1 9.0 8.7
-4.3 0.2 0.4 0.3 0.3 0.7 -0.6 -0.9 -0.5 1.0 0.2 0.4 1.9 0.6 1.7 2.4 3.4 4.6 4.4 4.7 5.4 5.9 6.4 8.4 8.0 8.9 8.2
1.0 0.7 1.2 1.2 -0.4 -0.2 1.2 -1.5 -0.9 1.5 0.7 -0.8 -0.4 0.0 1.7 2.2 2.5 3.0 3.9 5.1 5.2 5.1 5.4 5.4 5.9 7.5 8.2
1.3 1.5 1.6 1.8 1.3 0.5 0.2 0.6 1.1 1.3 0.5 -1.9 -0.9 -0.3 0.3 0.8 1.0 2.8 4.7 5.0 5.0 5.3 5.3 5.5 6.1 6.1 6.0
4.1 5.2 5.6 6.0 5.0 1.0 0.5 -0.4 0.2 1.4 0.7 0.4 -0.6 -0.7 -1.3 -1.2 1.2 2.9 4.6 5.4 5.1 5.3 5.5 5.8 5.8 5.7 5.5
2.2 2.7 3.0 4.5 4.6 2.8 -1.0 -2.8 -1.6 -0.2 0.8 1.3 -0.5 0.2 -1.1 -1.3 0.2 3.3 2.7 3.5 4.3 4.4 4.8 5.0 5.3 5.4 4.6
1.7 1.7 2.2 2.6 2.8 2.7 1.9 -2.0 2.0 2.9 2.7 4.0 1.5 3.0 4.0 0.2 -1.9 -0.4 0.8 1.3 1.6 2.0 2.9 3.9 5.2 6.1 5.4
2.0 1.3 1.6 1.1 1.4 3.2 3.0 2.7 2.4 2.2 2.7 3.4 3.0 2.2 1.1 3.4 2.9 -1.0 0.7 1.2 1.1 1.2 2.2 3.1 4.6 5.7 6.3
1.2 0.7 0.8 2.6 2.6 2.1 2.4 2.5 2.3 2.3 3.0 3.5 1.8 1.4 2.7 3.6 3.9 2.0 3.5 0.8 2.7 0.6 0.9 1.8 2.0 3.0 2.5
0.0 1.1 2.9 2.7 2.2 1.8 1.5 2.0 1.5 -0.1 2.7 3.2 2.5 -0.3 1.7 2.8 3.8 2.5 2.7 3.8 0.9 3.3 3.3 2.8 2.7 2.8 2.9
2.5 2.8 2.5 2.5 2.2 1.9 1.7 1.8 1.8 -0.6 1.0 0.9 2.9 3.1 2.1 2.1 2.9 2.6 2.5 2.3 3.3 3.1 3.1 3.0 2.3 2.8 3.2
2.6 2.3 2.1 2.0 1.9 2.0 2.1 1.3 1.2 0.7 -0.2 -0.9 -1.5 -0.3 0.8 1.4 2.4 1.9 1.9 2.2 2.7 3.0 2.8 3.9 3.6 3.4 4.5
2.2 2.1 1.9 1.9 2.5 2.2 0.7 -1.3 0.6 0.5 0.2 0.1 -2.9 1.3 4.1 3.9 2.3 5.9 3.4 0.5 3.4 4.0 4.2 4.3 5.4 4.0 4.9
Wind_Speed
2 2 1 1 2 2 4 5 6 9 10 9 11 11 12 14 16 15 15 16 17 18 17 18 18 18 18
1 1 1 1 1 1 3 1 2 5 7 8 9 11 14 15 17 16 15 16 12 15 17 18 18 18 19
2 1 1 1 2 1 1 3 2 3 6 9 11 11 12 12 13 14 16 16 15 16 17 17 18 19 19
2 2 2 2 2 2 2 2 2 7 8 7 5 11 12 12 12 12 12 13 15 15 16 17 18 20 20
2 2 1 2 2 1 1 2 3 1 2 5 9 13 11 7 9 10 11 13 15 16 17 19 20 21 20
1 1 0 1 1 1 0 2 3 1 3 4 6 2 6 8 10 14 15 14 14 13 14 16 17 18 19
2 2 2 3 3 1 2 2 3 3 2 3 1 3 7 12 16 13 8 5 9 14 15 17 19 20 21
3 3 3 5 5 4 4 3 3 3 2 2 2 3 7 15 11 5 3 7 15 14 16 17 19 20 22
2 2 3 3 5 3 1 2 2 2 1 1 3 4 3 3 7 6 6 19 16 17 18 19 20 21 18
3 3 4 3 5 4 3 2 1 3 1 2 3 3 4 2 3 13 18 17 18 21 21 18 17 13 11
1 1 2 2 3 3 2 3 1 4 5 1 1 1 2 4 2 6 11 13 15 18 18 16 15 14 6
1 0 0 0 1 5 7 6 9 9 11 9 3 2 3 7 7 2 7 13 13 8 12 16 18 19 20
1 1 2 1 4 5 7 8 11 11 12 14 7 5 5 7 8 9 10 4 15 5 6 7 7 12 8
2 2 1 3 3 1 2 3 4 4 12 14 14 6 4 7 8 11 9 6 5 9 7 9 14 15 14
1 1 2 3 3 2 2 3 4 3 6 4 12 14 12 9 8 10 10 8 7 8 5 9 9 11 13
1 2 3 3 4 3 3 2 5 6 5 3 2 4 3 8 20 9 7 8 7 7 6 8 11 9 15
3 3 3 4 7 4 3 2 5 5 6 4 2 2 6 8 3 17 7 3 6 9 7 8 10 12 9
Wind_Direction
70 59 89 121 120 186 235 238 250 268 280 290 289 288 293 294 294 294 295 292 291 288 294 292 288 290 291
132 124 115 181 164 204 260 240 266 286 294 296 296 302 296 296 295 292 293 292 300 290 287 287 288 283 282
132 107 93 83 86 57 15 19 331 325 333 310 304 309 303 295 296 298 288 288 289 287 285 285 284 284 284
72 89 76 57 78 64 354 23 309 322 317 285 306 314 306 293 287 288 287 285 283 281 279 279 278 278 282
66 64 25 42 56 352 23 322 294 289 315 306 309 310 303 294 298 296 292 286 288 289 289 287 286 286 286
137 104 76 131 128 106 122 36 325 315 329 292 254 266 282 307 300 300 294 290 290 292 293 294 292 293 290
143 185 187 205 133 150 222 173 236 282 0 286 309 293 298 302 306 296 282 298 325 312 304 299 297 294 291
147 180 200 194 195 179 188 227 275 280 172 272 327 283 300 307 311 282 225 329 325 308 302 298 295 295 292
57 298 302 286 245 120 243 84 315 294 28 335 320 306 311 315 326 315 304 318 314 308 303 300 296 293 291
359 13 22 41 72 76 130 127 178 333 291 343 347 359 326 299 301 304 301 301 304 305 304 299 296 291 288
355 10 42 51 73 93 112 141 228 263 279 334 230 252 235 302 277 271 285 288 291 295 295 298 295 288 279
74 357 121 250 327 345 302 273 247 245 268 275 263 204 254 287 289 297 298 289 272 272 282 286 290 289 287
192 246 221 1 309 291 298 298 291 276 272 258 238 268 255 268 280 293 308 298 300 282 268 271 272 284 290
204 241 337 295 296 248 275 295 277 277 282 282 274 214 259 256 264 279 278 277 290 292 285 284 284 272 266
218 258 264 275 268 241 249 267 267 285 294 283 279 265 242 248 269 262 272 270 268 278 283 289 287 279 266
245 255 267 275 276 260 239 247 280 287 283 277 290 327 299 259 228 257 262 265 275 276 267 278 289 288 277
244 253 251 266 289 286 270 241 281 277 270 262 259 250 280 284 264 259 259 256 283 288 273 270 279 284 288